This demonstration page uses our WeatherBlox Daily Observations layout. Learn more.

Left ArrowRight Arrow

44.89941, -97.11507

Hourly Observations for November 27, 2015

Temp ( °F °C ) Dew Point ( °F °C ) Humidity (%) Winds ( mph kmh ) Pressure ( in mb ) Visibility ( mi km ) Precip ( " mm )
12:53 am 00:53 Cloudy 13 -10.6 8 -13.3 81 81 N 16 26 30.64 1038 9 14 0.00 0.00
1:11 am 01:11 Partly Cloudy 13 -10.6 8 -13.3 81 81 N 10 17 30.71 1040 10 16 0.00 0.00
1:53 am 01:53 Clear 10 -12.2 6 -14.4 84 84 N 9 15 30.64 1038 10 16 0.00 0.00
2:53 am 02:53 Clear 10 -12.2 5 -15 80 80 N 8 13 30.66 1038 10 16 0.00 0.00
3:53 am 03:53 Clear 10 -12.2 5 -15 80 80 N 9 15 30.66 1038 10 16 0.00 0.00
4:53 am 04:53 Clear 9 -12.8 5 -15 84 84 N 8 13 30.68 1039 10 16 0.00 0.00
5:53 am 05:53 Clear 8 -13.3 3 -16.1 80 80 NNW 7 11 30.70 1040 10 16 0.00 0.00
6:53 am 06:53 Clear 7 -13.9 3 -16.1 84 84 NNW 8 13 30.71 1040 10 16 0.00 0.00
7:53 am 07:53 Sunny 5 -15 1 -17.2 83 83 N 6 9 30.73 1041 10 16 0.00 0.00
8:53 am 08:53 Sunny 12 -11.1 6 -14.4 77 77 N 7 11 30.72 1040 10 16 0.00 0.00
9:53 am 09:53 Sunny 16 -8.9 9 -12.8 74 74 N 8 13 30.70 1040 10 16 0.00 0.00
10:53 am 10:53 Sunny 19 -7.2 10 -12.2 68 68 N 7 11 30.71 1040 10 16 0.00 0.00
11:53 am 11:53 Sunny 21 -6.1 11 -11.7 65 65 NW 7 11 30.69 1039 10 16 0.00 0.00
12:53 pm 12:53 Sunny 22 -5.6 12 -11.1 66 66 WNW 8 13 30.68 1039 10 16 0.00 0.00
1:53 pm 13:53 Sunny 24 -4.4 11 -11.7 57 57 WNW 6 9 30.67 1039 10 16 0.00 0.00
2:53 pm 14:53 Sunny 25 -3.9 11 -11.7 55 55 WNW 7 11 30.65 1038 10 16 0.00 0.00
3:53 pm 15:53 Sunny 25 -3.9 11 -11.7 55 55 W 5 7 30.64 1038 10 16 0.00 0.00
4:53 pm 16:53 Clear 21 -6.1 9 -12.8 59 59 WNW 3 6 30.63 1037 10 16 0.00 0.00
5:53 pm 17:53 Clear 16 -8.9 8 -13.3 71 71 WSW 5 7 30.64 1038 10 16 0.00 0.00
6:53 pm 18:53 Clear 15 -9.4 7 -13.9 70 70 W 7 11 30.64 1038 8 13 0.00 0.00
7:53 pm 19:53 Clear 12 -11.1 6 -14.4 77 77 WSW 7 11 30.63 1037 10 16 0.00 0.00
8:53 pm 20:53 Clear 12 -11.1 7 -13.9 80 80 WSW 6 9 30.61 1037 10 16 0.00 0.00
9:53 pm 21:53 Clear 12 -11.1 7 -13.9 80 80 WSW 6 9 30.60 1036 10 16 0.00 0.00
10:53 pm 22:53 Clear 13 -10.6 8 -13.3 81 81 SW 3 6 30.59 1036 10 16 0.00 0.00
11:53 pm 23:53 Clear 10 -12.2 6 -14.4 84 84 WSW 7 11 30.58 1036 10 16 0.00 0.00

Powered by AerisWeather